[Iaude] MPEC S86: 2016 ST3 [a=2.21,e=0.52,i=7.9,H=24.0]

mpec at si.edu mpec at si.edu
Thu Sep 29 15:20:08 EDT 2016


M.P.E.C. 2016-S86                                Issued 2016 Sept. 28, 16:07 UT
 
     The Minor Planet Electronic Circulars contain information on unusual
         minor planets and routine data on comets.  They are published
    on behalf of Division F of the International Astronomical Union by the
          Minor Planet Center, Smithsonian Astrophysical Observatory,
                          Cambridge, MA 02138, U.S.A.

             Prepared using the Tamkin Foundation Computer Network

                              MPC at CFA.HARVARD.EDU
            URL http://www.minorplanetcenter.net/    ISSN 1523-6714


                                   2016 ST3
 
Observations:
     K16S03T* C2016 09 26.17369 22 04 04.86 +22 36 42.7          21.4 VqES086G96
     K16S03T  C2016 09 26.17496 22 04 05.22 +22 36 47.0          21.5 VqES086G96
     K16S03T  C2016 09 26.17623 22 04 05.57 +22 36 49.4          21.6 VqES086G96
     K16S03T  C2016 09 26.17751 22 04 06.02 +22 36 52.3          21.0 VqES086G96
     K16S03T  C2016 09 26.26799 22 04 31.90 +22 40 31.8          21.6 VqES086G96
     K16S03T  C2016 09 26.27065 22 04 32.73 +22 40 38.9          21.2 VqES086G96
     K16S03T  C2016 09 26.27482 22 04 33.95 +22 40 48.8          21.1 VqES086G96
     K16S03T KC2016 09 26.30863 22 04 43.68 +22 42 09.6          21.0 RoES086291
     K16S03T KC2016 09 26.31069 22 04 44.31 +22 42 14.4          21.1 RoES086291
     K16S03T KC2016 09 26.31277 22 04 44.91 +22 42 19.5          21.3 RoES086291
     K16S03T KC2016 09 27.08107022 08 42.33 +23 12 09.2          21.7 VuES086H21
     K16S03T KC2016 09 27.08929722 08 44.68 +23 12 28.0          21.9 VuES086H21
     K16S03T KC2016 09 27.10211122 08 48.26 +23 12 57.3          22.2 VuES086H21
     K16S03T "C2016 09 28.24564222 14 23.34 +23 53 51.6          21.4 RtES086705
     K16S03T "C2016 09 28.24665922 14 23.54 +23 53 53.4          21.5 RtES086705
     K16S03T "C2016 09 28.24767622 14 23.79 +23 53 55.2          20.5 RtES086705
 
Observer details:
291 LPL/Spacewatch II.  Observer T. H. Bressi.  1.8-m f/2.7 reflector + CCD.
705 Apache Point.  Observers K. Nault, M. Hammergren, M. Brucker.  Measurer
    K. Nault.  3.5-m f/10 reflector + CCD.
G96 Mt. Lemmon Survey.  Observer E. J. Christensen.  Measurers
    E. J. Christensen, D. C. Fuls, A. R. Gibbs, A. D. Grauer, J. A. Johnson,
    R. A. Kowalski, S. M. Larson, G. J. Leonard, R. G. Matheny, R. L. Seaman,
    F. C. Shelly.  1.5-m reflector + 10K CCD.
H21 Astronomical Research Observatory, Westfield.  Observer R. Holmes.
    Measurers S. Foglia, L. Buzzi, T. Linder, R. Holmes.  0.81-m f/4.0
    astrograph + CCD.
 
Orbital elements:
2016 ST3                                                 Earth MOID = 0.0568 AU
Epoch 2016 July 31.0 TT = JDT 2457600.5                 MPC
M 351.62456              (2000.0)            P               Q
n   0.29932849     Peri.  359.49764     +0.86767813     +0.49255880
a   2.2132850      Node   330.68761     -0.45562426     +0.73383566
e   0.5173599      Incl.    7.89360     -0.19884970     +0.46783657
P   3.29           H   24.0           G   0.15           U   8
Residuals in seconds of arc
160926 G96  0.3-  0.4-    160926 G96  0.6+  0.0     160927 H21  0.1+  0.6-
160926 G96  0.3-  0.8+    160926 291  0.3-  0.2+    160928 705  0.7+  0.4+
160926 G96  0.5-  0.0     160926 291  0.2+  0.1+    160928 705  0.3-  0.2+
160926 G96  0.6+  0.3-    160926 291  0.1+  0.4+    160928 705  0.6-  0.0
160926 G96  0.6-  0.7-    160927 H21  0.0   0.4-
160926 G96  0.3+  0.0     160927 H21  0.4+  0.5-

Ephemeris:
2016 ST3                 a,e,i = 2.21, 0.52, 8                   q = 1.0682
Date    TT    R. A. (2000) Decl.     Delta      r     Elong.  Phase     V
2016 08 29    18 38 00.5 -22 15 31   0.1012  1.0683   122.9    52.5    21.1
...
2016 09 13    20 39 44.3 +07 06 26   0.1043  1.0852   137.4    38.9    20.8
...
2016 09 21    21 34 53.6 +18 12 00   0.1272  1.1058   141.0    34.8    21.2
...
2016 09 27    22 08 16.3 +23 09 22   0.1512  1.1260   142.5    32.8    21.5
2016 09 28    22 13 12.7 +23 45 35   0.1557  1.1298   142.7    32.5    21.6
2016 09 29    22 17 59.3 +24 18 36   0.1602  1.1336   142.9    32.2    21.7
...
2016 10 05    22 43 33.9 +26 40 42   0.1898  1.1587   143.8    30.6    22.0
...
2016 10 13    23 11 04.8 +28 05 32   0.2347  1.1970   144.7    28.8    22.5
...
2016 10 28    23 49 57.8 +28 05 51   0.3355  1.2807   144.2    27.0    23.4

A. U. Tomatic                (C) Copyright 2016 MPC           M.P.E.C. 2016-S86




More information about the Iaude mailing list